Salt Lake City, UT

10:32 PM MST on February 24, 2017 (GMT -0700)
Salt Lake City International

Weather History for KSLC - August, 2013

Change the Weather History Date:

Tuesday, August 6, 2013

  Actual Average Record
Temperature  
Mean Temperature 85 °F 79 °F  
Max Temperature 98 °F 93 °F 101 °F (1995)
Min Temperature 72 °F 66 °F 48 °F (1950)
Degree Days  
Heating Degree Days 0 0  
Month to date heating degree days 0 0  
Since 1 June heating degree days 4 48  
Since 1 July heating degree days 0 2  
Cooling Degree Days 20 14  
Month to date cooling degree days 117 87  
Year to date cooling degree days 1109 749  
Since 1 June cooling degree days 1039 699  
Growing Degree Days 35 (Base 50)    
Moisture  
Dew Point 37 °F    
Average Humidity 21    
Maximum Humidity 31    
Minimum Humidity 11    
Precipitation  
Precipitation 0.00 in 0.02 in 0.40 in (1946)
Month to date precipitation 0.03 0.12  
Year to date precipitation 7.31 9.94  
Snow  
Snow 0.00 in 0.00 in - ()
Month to date snowfall 0.0 0.0  
Since 1 July snowfall 0.0 0.0  
Snow Depth 0.00 in    
Sea Level Pressure  
Sea Level Pressure 29.79 in    
Wind  
Wind Speed 7 mph (SSE)    
Max Wind Speed 16 mph    
Max Gust Speed 21 mph    
Visibility 10 miles    
Events      
T = Trace of Precipitation, MM = Missing Value Source: NWS Daily Summary

Daily Weather History Graph

Daily Weather History Graph

Search for Another Location

Airport or City:

Trip Planner

Search our weather history database for the weather conditions in past years. The results will help you decide how hot, cold, wet, or windy it might be!

Date:

Astronomy

Aug. 06, 2013 Rise Set
Actual Time 6:29 AM MDT 8:37 PM MDT
Civil Twilight 5:59 AM MDT 9:07 PM MDT
Nautical Twilight 5:22 AM MDT 9:44 PM MDT
Astronomical Twilight 4:41 AM MDT 10:24 PM MDT
Moon 6:24 AM MDT (8/6) 8:13 PM MDT (8/6)
Length of Visible Light 15h 08m
Length of Day
14h 07m
Waning Crescent, 0% of the Moon is Illuminated
Aug 6
Waning Crescent
Aug 6
New
Aug 14
First Quarter
Aug 20
Full
Aug 28
Last Quarter

Hourly Weather History & Observations

Time (MDT) Temp. Dew Point Humidity Pressure Visibility Wind Dir Wind Speed Gust Speed Precip Events Conditions
12:53 AM 75.9 °F 37.0 °F 24% 29.76 in 10.0 mi SSE 6.9 mph - N/A   Scattered Clouds
1:53 AM 79.0 °F 39.0 °F 24% 29.76 in 10.0 mi SSE 11.5 mph - N/A   Scattered Clouds
2:53 AM 75.9 °F 37.0 °F 24% 29.76 in 10.0 mi SSE 8.1 mph - N/A   Partly Cloudy
3:53 AM 75.0 °F 39.9 °F 28% 29.75 in 10.0 mi SSE 9.2 mph - N/A   Partly Cloudy
4:53 AM 73.9 °F 37.9 °F 27% 29.77 in 10.0 mi ESE 9.2 mph - N/A   Partly Cloudy
5:53 AM 73.0 °F 37.9 °F 28% 29.78 in 10.0 mi SE 8.1 mph - N/A   Scattered Clouds
6:53 AM 73.9 °F 37.9 °F 27% 29.79 in 10.0 mi East 4.6 mph - N/A   Scattered Clouds
7:53 AM 77.0 °F 39.9 °F 26% 29.80 in 10.0 mi ESE 6.9 mph - N/A   Scattered Clouds
8:53 AM 79.0 °F 43.0 °F 28% 29.83 in 10.0 mi South 3.5 mph - N/A   Mostly Cloudy
9:53 AM 84.0 °F 45.0 °F 25% 29.84 in 10.0 mi Calm Calm - N/A   Scattered Clouds
10:53 AM 86.0 °F 39.0 °F 19% 29.84 in 10.0 mi SSW 4.6 mph - N/A   Scattered Clouds
11:53 AM 91.0 °F 37.9 °F 15% 29.83 in 10.0 mi SSE 8.1 mph - N/A   Scattered Clouds
12:53 PM 93.0 °F 33.1 °F 12% 29.82 in 10.0 mi Calm Calm - N/A   Scattered Clouds
1:53 PM 95.0 °F 37.0 °F 13% 29.80 in 10.0 mi Variable 5.8 mph - N/A   Scattered Clouds
2:53 PM 97.0 °F 32.0 °F 10% 29.79 in 10.0 mi West 4.6 mph - N/A   Scattered Clouds
3:53 PM 96.1 °F 32.0 °F 10% 29.78 in 10.0 mi North 4.6 mph - N/A   Mostly Cloudy
4:53 PM 95.0 °F 32.0 °F 11% 29.78 in 10.0 mi SW 8.1 mph - N/A   Mostly Cloudy
5:53 PM 93.9 °F 30.9 °F 11% 29.77 in 10.0 mi South 6.9 mph - N/A   Mostly Cloudy
6:53 PM 95.0 °F 32.0 °F 11% 29.76 in 10.0 mi Calm Calm - N/A   Mostly Cloudy
7:53 PM 93.0 °F 34.0 °F 12% 29.75 in 10.0 mi Calm Calm - N/A   Mostly Cloudy
8:53 PM 91.0 °F 28.0 °F 10% 29.76 in 10.0 mi Calm Calm - N/A   Mostly Cloudy
9:53 PM 86.0 °F 37.0 °F 18% 29.79 in 10.0 mi WNW 5.8 mph - N/A   Mostly Cloudy
10:53 PM 79.0 °F 45.0 °F 30% 29.80 in 10.0 mi WSW 6.9 mph - N/A   Mostly Cloudy
11:53 PM 78.1 °F 39.9 °F 25% 29.79 in 10.0 mi SE 6.9 mph - N/A   Mostly Cloudy